﻿測定場所 (Monitoring sites),日付 (Measurement date),時間 (Measurement time),線量率 最大値 (max) μGy/h,線量率 最小値 (min) μGy/h,線量率 平均値 (average) μGy/h,
八王子 (Hachioji),2013-06-23,23:01～24:00,0.0373,0.0337,0.0358,
八王子 (Hachioji),2013-06-23,22:01～23:00,0.0399,0.0342,0.0356,
八王子 (Hachioji),2013-06-23,21:01～22:00,0.0377,0.0336,0.0357,
八王子 (Hachioji),2013-06-23,20:01～21:00,0.0386,0.0337,0.0358,
八王子 (Hachioji),2013-06-23,19:01～20:00,0.0373,0.0338,0.0358,
八王子 (Hachioji),2013-06-23,18:01～19:00,0.0372,0.0327,0.0354,
八王子 (Hachioji),2013-06-23,17:01～18:00,0.0383,0.0336,0.0356,
八王子 (Hachioji),2013-06-23,16:01～17:00,0.0393,0.0340,0.0361,
八王子 (Hachioji),2013-06-23,15:01～16:00,0.0373,0.0337,0.0361,
八王子 (Hachioji),2013-06-23,14:01～15:00,0.0382,0.0345,0.0359,
八王子 (Hachioji),2013-06-23,13:01～14:00,0.0383,0.0342,0.0359,
八王子 (Hachioji),2013-06-23,12:01～13:00,0.0376,0.0341,0.0358,
八王子 (Hachioji),2013-06-23,11:01～12:00,0.0386,0.0339,0.0360,
八王子 (Hachioji),2013-06-23,10:01～11:00,0.0380,0.0350,0.0363,
八王子 (Hachioji),2013-06-23,09:01～10:00,0.0385,0.0346,0.0361,
八王子 (Hachioji),2013-06-23,08:01～09:00,0.0390,0.0344,0.0361,
八王子 (Hachioji),2013-06-23,07:01～08:00,0.0386,0.0344,0.0361,
八王子 (Hachioji),2013-06-23,06:01～07:00,0.0378,0.0339,0.0360,
八王子 (Hachioji),2013-06-23,05:01～06:00,0.0378,0.0340,0.0358,
八王子 (Hachioji),2013-06-23,04:01～05:00,0.0383,0.0339,0.0358,
八王子 (Hachioji),2013-06-23,03:01～04:00,0.0373,0.0334,0.0356,
八王子 (Hachioji),2013-06-23,02:01～03:00,0.0383,0.0338,0.0356,
八王子 (Hachioji),2013-06-23,01:01～02:00,0.0389,0.0341,0.0360,
八王子 (Hachioji),2013-06-23,00:01～01:00,0.0382,0.0338,0.0363,
八王子 (Hachioji),2013-06-22,23:01～24:00,0.0377,0.0337,0.0358,
八王子 (Hachioji),2013-06-22,22:01～23:00,0.0378,0.0342,0.0359,
八王子 (Hachioji),2013-06-22,21:01～22:00,0.0371,0.0341,0.0359,
八王子 (Hachioji),2013-06-22,20:01～21:00,0.0381,0.0338,0.0357,
八王子 (Hachioji),2013-06-22,19:01～20:00,0.0387,0.0338,0.0357,
八王子 (Hachioji),2013-06-22,18:01～19:00,0.0405,0.0337,0.0365,
八王子 (Hachioji),2013-06-22,17:01～18:00,0.0449,0.0354,0.0398,
八王子 (Hachioji),2013-06-22,16:01～17:00,0.0468,0.0392,0.0432,
八王子 (Hachioji),2013-06-22,15:01～16:00,0.0539,0.0441,0.0494,
八王子 (Hachioji),2013-06-22,14:01～15:00,0.0512,0.0337,0.0403,
八王子 (Hachioji),2013-06-22,13:01～14:00,0.0383,0.0337,0.0356,
八王子 (Hachioji),2013-06-22,12:01～13:00,0.0372,0.0339,0.0357,
八王子 (Hachioji),2013-06-22,11:01～12:00,0.0372,0.0332,0.0353,
八王子 (Hachioji),2013-06-22,10:01～11:00,0.0374,0.0335,0.0351,
八王子 (Hachioji),2013-06-22,09:01～10:00,0.0378,0.0328,0.0354,
八王子 (Hachioji),2013-06-22,08:01～09:00,0.0377,0.0337,0.0356,
八王子 (Hachioji),2013-06-22,07:01～08:00,0.0376,0.0338,0.0358,
八王子 (Hachioji),2013-06-22,06:01～07:00,0.0373,0.0334,0.0357,
八王子 (Hachioji),2013-06-22,05:01～06:00,0.0380,0.0334,0.0356,
八王子 (Hachioji),2013-06-22,04:01～05:00,0.0371,0.0324,0.0355,
八王子 (Hachioji),2013-06-22,03:01～04:00,0.0389,0.0329,0.0355,
八王子 (Hachioji),2013-06-22,02:01～03:00,0.0389,0.0339,0.0359,
八王子 (Hachioji),2013-06-22,01:01～02:00,0.0401,0.0345,0.0360,
八王子 (Hachioji),2013-06-22,00:01～01:00,0.0430,0.0352,0.0380,
八王子 (Hachioji),2013-06-21,23:01～24:00,0.0474,0.0385,0.0428,
八王子 (Hachioji),2013-06-21,22:01～23:00,0.0485,0.0410,0.0449,
八王子 (Hachioji),2013-06-21,21:01～22:00,0.0488,0.0406,0.0450,
八王子 (Hachioji),2013-06-21,20:01～21:00,0.0478,0.0407,0.0444,
八王子 (Hachioji),2013-06-21,19:01～20:00,0.0484,0.0403,0.0438,
八王子 (Hachioji),2013-06-21,18:01～19:00,0.0443,0.0361,0.0399,
八王子 (Hachioji),2013-06-21,17:01～18:00,0.0451,0.0378,0.0416,
八王子 (Hachioji),2013-06-21,16:01～17:00,0.0458,0.0386,0.0421,
八王子 (Hachioji),2013-06-21,15:01～16:00,0.0442,0.0369,0.0410,
八王子 (Hachioji),2013-06-21,14:01～15:00,0.0452,0.0380,0.0416,
八王子 (Hachioji),2013-06-21,13:01～14:00,0.0431,0.0374,0.0402,
八王子 (Hachioji),2013-06-21,12:01～13:00,0.0459,0.0373,0.0402,
八王子 (Hachioji),2013-06-21,11:01～12:00,0.0451,0.0377,0.0414,
八王子 (Hachioji),2013-06-21,10:01～11:00,0.0418,0.0357,0.0383,
八王子 (Hachioji),2013-06-21,09:01～10:00,0.0404,0.0352,0.0372,
八王子 (Hachioji),2013-06-21,08:01～09:00,0.0413,0.0348,0.0372,
八王子 (Hachioji),2013-06-21,07:01～08:00,0.0398,0.0351,0.0372,
八王子 (Hachioji),2013-06-21,06:01～07:00,0.0396,0.0356,0.0373,
八王子 (Hachioji),2013-06-21,05:01～06:00,0.0397,0.0346,0.0368,
八王子 (Hachioji),2013-06-21,04:01～05:00,0.0418,0.0343,0.0364,
八王子 (Hachioji),2013-06-21,03:01～04:00,0.0375,0.0332,0.0355,
八王子 (Hachioji),2013-06-21,02:01～03:00,0.0378,0.0335,0.0354,
八王子 (Hachioji),2013-06-21,01:01～02:00,0.0386,0.0331,0.0355,
八王子 (Hachioji),2013-06-21,00:01～01:00,0.0381,0.0335,0.0355,
八王子 (Hachioji),2013-06-20,23:01～24:00,0.0375,0.0338,0.0358,
八王子 (Hachioji),2013-06-20,22:01～23:00,0.0379,0.0339,0.0358,
八王子 (Hachioji),2013-06-20,21:01～22:00,0.0412,0.0349,0.0378,
八王子 (Hachioji),2013-06-20,20:01～21:00,0.0460,0.0359,0.0407,
八王子 (Hachioji),2013-06-20,19:01～20:00,0.0536,0.0427,0.0484,
八王子 (Hachioji),2013-06-20,18:01～19:00,0.0478,0.0393,0.0435,
八王子 (Hachioji),2013-06-20,17:01～18:00,0.0473,0.0393,0.0428,
八王子 (Hachioji),2013-06-20,16:01～17:00,0.0455,0.0397,0.0427,
八王子 (Hachioji),2013-06-20,15:01～16:00,0.0457,0.0370,0.0421,
八王子 (Hachioji),2013-06-20,14:01～15:00,0.0460,0.0385,0.0415,
八王子 (Hachioji),2013-06-20,13:01～14:00,0.0468,0.0372,0.0412,
八王子 (Hachioji),2013-06-20,12:01～13:00,0.0418,0.0358,0.0379,
八王子 (Hachioji),2013-06-20,11:01～12:00,0.0395,0.0332,0.0361,
八王子 (Hachioji),2013-06-20,10:01～11:00,0.0372,0.0333,0.0356,
八王子 (Hachioji),2013-06-20,09:01～10:00,0.0395,0.0339,0.0358,
八王子 (Hachioji),2013-06-20,08:01～09:00,0.0391,0.0346,0.0365,
八王子 (Hachioji),2013-06-20,07:01～08:00,0.0390,0.0334,0.0362,
八王子 (Hachioji),2013-06-20,06:01～07:00,0.0435,0.0361,0.0390,
八王子 (Hachioji),2013-06-20,05:01～06:00,0.0490,0.0391,0.0431,
八王子 (Hachioji),2013-06-20,04:01～05:00,0.0496,0.0417,0.0457,
八王子 (Hachioji),2013-06-20,03:01～04:00,0.0472,0.0395,0.0437,
八王子 (Hachioji),2013-06-20,02:01～03:00,0.0469,0.0398,0.0434,
八王子 (Hachioji),2013-06-20,01:01～02:00,0.0495,0.0392,0.0435,
八王子 (Hachioji),2013-06-20,00:01～01:00,0.0497,0.0425,0.0465,
八王子 (Hachioji),2013-06-19,23:01～24:00,0.0479,0.0370,0.0424,
八王子 (Hachioji),2013-06-19,22:01～23:00,0.0409,0.0344,0.0374,
八王子 (Hachioji),2013-06-19,21:01～22:00,0.0400,0.0344,0.0363,
八王子 (Hachioji),2013-06-19,20:01～21:00,0.0400,0.0343,0.0366,
八王子 (Hachioji),2013-06-19,19:01～20:00,0.0390,0.0342,0.0363,
八王子 (Hachioji),2013-06-19,18:01～19:00,0.0378,0.0340,0.0361,
八王子 (Hachioji),2013-06-19,17:01～18:00,0.0406,0.0338,0.0364,
八王子 (Hachioji),2013-06-19,16:01～17:00,0.0380,0.0341,0.0357,
八王子 (Hachioji),2013-06-19,15:01～16:00,0.0375,0.0341,0.0355,
八王子 (Hachioji),2013-06-19,14:01～15:00,0.0376,0.0339,0.0357,
八王子 (Hachioji),2013-06-19,13:01～14:00,0.0373,0.0337,0.0354,
八王子 (Hachioji),2013-06-19,12:01～13:00,0.0375,0.0336,0.0354,
八王子 (Hachioji),2013-06-19,11:01～12:00,0.0380,0.0337,0.0353,
八王子 (Hachioji),2013-06-19,10:01～11:00,0.0370,0.0333,0.0354,
八王子 (Hachioji),2013-06-19,09:01～10:00,0.0368,0.0338,0.0354,
八王子 (Hachioji),2013-06-19,08:01～09:00,0.0386,0.0337,0.0354,
八王子 (Hachioji),2013-06-19,07:01～08:00,0.0383,0.0337,0.0359,
八王子 (Hachioji),2013-06-19,06:01～07:00,0.0399,0.0346,0.0363,
八王子 (Hachioji),2013-06-19,05:01～06:00,0.0408,0.0342,0.0364,
八王子 (Hachioji),2013-06-19,04:01～05:00,0.0405,0.0342,0.0364,
八王子 (Hachioji),2013-06-19,03:01～04:00,0.0374,0.0337,0.0358,
八王子 (Hachioji),2013-06-19,02:01～03:00,0.0385,0.0325,0.0355,
八王子 (Hachioji),2013-06-19,01:01～02:00,0.0392,0.0348,0.0364,
八王子 (Hachioji),2013-06-19,00:01～01:00,0.0398,0.0342,0.0368,
八王子 (Hachioji),2013-06-18,23:01～24:00,0.0399,0.0345,0.0366,
八王子 (Hachioji),2013-06-18,22:01～23:00,0.0400,0.0346,0.0368,
八王子 (Hachioji),2013-06-18,21:01～22:00,0.0398,0.0341,0.0366,
八王子 (Hachioji),2013-06-18,20:01～21:00,0.0399,0.0348,0.0366,
八王子 (Hachioji),2013-06-18,19:01～20:00,0.0394,0.0344,0.0366,
八王子 (Hachioji),2013-06-18,18:01～19:00,0.0414,0.0345,0.0363,
八王子 (Hachioji),2013-06-18,17:01～18:00,0.0409,0.0346,0.0364,
八王子 (Hachioji),2013-06-18,16:01～17:00,0.0383,0.0337,0.0361,
八王子 (Hachioji),2013-06-18,15:01～16:00,0.0382,0.0338,0.0360,
八王子 (Hachioji),2013-06-18,14:01～15:00,0.0387,0.0333,0.0359,
八王子 (Hachioji),2013-06-18,13:01～14:00,0.0373,0.0340,0.0359,
八王子 (Hachioji),2013-06-18,12:01～13:00,0.0385,0.0340,0.0358,
八王子 (Hachioji),2013-06-18,11:01～12:00,0.0390,0.0335,0.0358,
八王子 (Hachioji),2013-06-18,10:01～11:00,0.0377,0.0339,0.0360,
八王子 (Hachioji),2013-06-18,09:01～10:00,0.0394,0.0340,0.0360,
八王子 (Hachioji),2013-06-18,08:01～09:00,0.0385,0.0332,0.0362,
八王子 (Hachioji),2013-06-18,07:01～08:00,0.0404,0.0340,0.0364,
八王子 (Hachioji),2013-06-18,06:01～07:00,0.0392,0.0342,0.0367,
八王子 (Hachioji),2013-06-18,05:01～06:00,0.0395,0.0350,0.0370,
八王子 (Hachioji),2013-06-18,04:01～05:00,0.0397,0.0347,0.0367,
八王子 (Hachioji),2013-06-18,03:01～04:00,0.0392,0.0351,0.0366,
八王子 (Hachioji),2013-06-18,02:01～03:00,0.0380,0.0339,0.0361,
八王子 (Hachioji),2013-06-18,01:01～02:00,0.0378,0.0339,0.0357,
八王子 (Hachioji),2013-06-18,00:01～01:00,0.0391,0.0322,0.0355,
八王子 (Hachioji),2013-06-17,23:01～24:00,0.0370,0.0329,0.0353,
八王子 (Hachioji),2013-06-17,22:01～23:00,0.0374,0.0336,0.0354,
八王子 (Hachioji),2013-06-17,21:01～22:00,0.0371,0.0333,0.0353,
八王子 (Hachioji),2013-06-17,20:01～21:00,0.0379,0.0327,0.0353,
八王子 (Hachioji),2013-06-17,19:01～20:00,0.0369,0.0333,0.0354,
八王子 (Hachioji),2013-06-17,18:01～19:00,0.0382,0.0330,0.0354,
八王子 (Hachioji),2013-06-17,17:01～18:00,0.0369,0.0335,0.0355,
八王子 (Hachioji),2013-06-17,16:01～17:00,0.0371,0.0335,0.0355,
八王子 (Hachioji),2013-06-17,15:01～16:00,0.0370,0.0329,0.0355,
八王子 (Hachioji),2013-06-17,14:01～15:00,0.0369,0.0333,0.0355,
八王子 (Hachioji),2013-06-17,13:01～14:00,0.0372,0.0330,0.0354,
八王子 (Hachioji),2013-06-17,12:01～13:00,0.0367,0.0322,0.0350,
八王子 (Hachioji),2013-06-17,11:01～12:00,0.0374,0.0328,0.0350,
八王子 (Hachioji),2013-06-17,10:01～11:00,0.0390,0.0334,0.0353,
八王子 (Hachioji),2013-06-17,09:01～10:00,0.0368,0.0332,0.0353,
八王子 (Hachioji),2013-06-17,08:01～09:00,0.0375,0.0338,0.0355,
八王子 (Hachioji),2013-06-17,07:01～08:00,0.0374,0.0331,0.0353,
八王子 (Hachioji),2013-06-17,06:01～07:00,0.0367,0.0340,0.0353,
八王子 (Hachioji),2013-06-17,05:01～06:00,0.0369,0.0330,0.0350,
八王子 (Hachioji),2013-06-17,04:01～05:00,0.0371,0.0330,0.0350,
八王子 (Hachioji),2013-06-17,03:01～04:00,0.0371,0.0328,0.0350,
八王子 (Hachioji),2013-06-17,02:01～03:00,0.0377,0.0325,0.0349,
八王子 (Hachioji),2013-06-17,01:01～02:00,0.0376,0.0322,0.0350,
八王子 (Hachioji),2013-06-17,00:01～01:00,0.0374,0.0333,0.0351,
